When you browse on this site, cookies collect data to enhance your experience and personalize the content and advertising you see.
Visit our Privacy Policy to learn more. By continuing to use the site, you agree to this use of cookies and data.
  • In Hungary
  • List of Countries
  • For 7 days
  • Water Temperature
  • Weather Map
  • News
  • Weather Widgets
  • user-avatar
    Login

    Hourly Weather Nevs'ke

    Today, 8 April, Wednesday

    Time Temperature Precipitation Wind Pressure Humidity
    00:00 +3°C° 0 mm 3 mps 770 mmHg 64%
    01:00 +3°C° 0 mm 3 mps 770 mmHg 66%
    02:00 +3°C° 0 mm 3 mps 770 mmHg 67%
    03:00 +3°C° 0 mm 3 mps 770 mmHg 65%
    04:00 +2°C° 0 mm 3 mps 769 mmHg 62%
    05:00 +1°C° 0 mm 4 mps 769 mmHg 60%
    06:00 +3°C° 0 mm 5 mps 769 mmHg 53%
    07:00 +5°C° 0 mm 6 mps 769 mmHg 45%
    08:00 +6°C° 0 mm 7 mps 769 mmHg 37%
    09:00 +8°C° 0 mm 7 mps 768 mmHg 36%
    10:00 +9°C° 0 mm 7 mps 768 mmHg 34%
    11:00 +10°C° 0 mm 7 mps 768 mmHg 32%
    12:00 +10°C° 0 mm 6 mps 767 mmHg 32%
    13:00 +10°C° 0 mm 6 mps 767 mmHg 31%
    14:00 +10°C° 0 mm 6 mps 766 mmHg 31%
    15:00 +10°C° 0 mm 5 mps 766 mmHg 33%
    16:00 +10°C° 0 mm 4 mps 765 mmHg 34%
    17:00 +8°C° 0 mm 4 mps 765 mmHg 36%
    18:00 +7°C° 0 mm 3 mps 765 mmHg 39%
    19:00 +6°C° 0 mm 2 mps 764 mmHg 43%
    20:00 +5°C° 0 mm 1 mps 764 mmHg 46%
    21:00 +5°C° 0 mm 1 mps 764 mmHg 42%
    22:00 +5°C° 0 mm 1 mps 764 mmHg 38%
    23:00 +5°C° 0 mm 1 mps 763 mmHg 35%

    Tomorrow, 9 April, Thursday

    Time Temperature Precipitation Wind Pressure Humidity
    00:00 +5°C° 0 mm 1 mps 763 mmHg 35%
    01:00 +5°C° 0 mm 1 mps 763 mmHg 35%
    02:00 +5°C° 0 mm 1 mps 762 mmHg 35%
    03:00 +5°C° 0 mm 1 mps 762 mmHg 37%
    04:00 +5°C° 0 mm 1 mps 762 mmHg 40%
    05:00 +4°C° 0 mm 2 mps 761 mmHg 43%
    06:00 +6°C° 0 mm 2 mps 761 mmHg 42%
    07:00 +8°C° 0 mm 2 mps 761 mmHg 42%
    08:00 +12°C° 0 mm 2 mps 762 mmHg 42%
    09:00 +13°C° 0 mm 2 mps 761 mmHg 42%
    10:00 +14°C° 0 mm 3 mps 761 mmHg 42%
    11:00 +17°C° 0 mm 3 mps 761 mmHg 42%
    12:00 +17°C° 0 mm 3 mps 761 mmHg 42%
    13:00 +17°C° 0 mm 3 mps 760 mmHg 42%
    14:00 +17°C° 0 mm 4 mps 760 mmHg 42%
    15:00 +17°C° 0 mm 3 mps 760 mmHg 43%
    16:00 +16°C° 0 mm 3 mps 760 mmHg 43%
    17:00 +16°C° 0 mm 3 mps 759 mmHg 43%
    18:00 +14°C° 0 mm 2 mps 759 mmHg 49%
    19:00 +12°C° 0 mm 2 mps 759 mmHg 55%
    20:00 +10°C° 0 mm 1 mps 759 mmHg 61%
    21:00 +9°C° 0 mm 1 mps 759 mmHg 63%
    22:00 +9°C° 0 mm 1 mps 759 mmHg 64%
    23:00 +8°C° 0 mm 0 mps 759 mmHg 66%

    Day after tomorrow, 10 April, Friday

    Time Temperature Precipitation Wind Pressure Humidity
    00:00 +7°C° 0 mm 0 mps 759 mmHg 67%
    01:00 +7°C° 0 mm 0 mps 758 mmHg 69%
    02:00 +6°C° 0 mm 0 mps 758 mmHg 71%
    03:00 +7°C° 0 mm 1 mps 758 mmHg 72%
    04:00 +7°C° 0 mm 1 mps 758 mmHg 73%
    05:00 +7°C° 0 mm 1 mps 758 mmHg 74%
    06:00 +9°C° 0 mm 1 mps 758 mmHg 67%
    07:00 +11°C° 0 mm 1 mps 758 mmHg 59%
    08:00 +13°C° 0 mm 1 mps 758 mmHg 52%
    09:00 +15°C° 0 mm 1 mps 758 mmHg 48%
    10:00 +16°C° 0 mm 1 mps 758 mmHg 43%
    11:00 +19°C° 0 mm 1 mps 758 mmHg 39%
    12:00 +18°C° 0 mm 2 mps 757 mmHg 37%
    13:00 +19°C° 0 mm 2 mps 757 mmHg 34%
    14:00 +20°C° 0 mm 3 mps 757 mmHg 32%
    15:00 +19°C° 0 mm 3 mps 756 mmHg 36%
    16:00 +18°C° 0 mm 3 mps 756 mmHg 39%
    17:00 +17°C° 0 mm 3 mps 756 mmHg 42%
    18:00 +16°C° 0 mm 3 mps 756 mmHg 46%
    19:00 +13°C° 0 mm 3 mps 757 mmHg 51%
    20:00 +12°C° 0 mm 3 mps 757 mmHg 56%
    21:00 +11°C° 0 mm 3 mps 757 mmHg 62%
    22:00 +11°C° 0 mm 3 mps 757 mmHg 69%
    23:00 +10°C° 0 mm 3 mps 757 mmHg 75%

    11 April, Saturday

    Time Temperature Precipitation Wind Pressure Humidity
    00:00 +10°C° 0 mm 4 mps 757 mmHg 70%
    01:00 +8°C° 0 mm 5 mps 757 mmHg 66%
    02:00 +8°C° 0 mm 5 mps 758 mmHg 61%
    03:00 +6°C° 0 mm 5 mps 758 mmHg 63%
    04:00 +5°C° 0 mm 4 mps 759 mmHg 65%
    05:00 +4°C° 0 mm 4 mps 759 mmHg 66%
    06:00 +5°C° 0 mm 4 mps 760 mmHg 60%
    07:00 +6°C° 0 mm 5 mps 760 mmHg 55%
    08:00 +8°C° 0 mm 6 mps 760 mmHg 49%
    09:00 +9°C° 0 mm 6 mps 761 mmHg 45%
    10:00 +10°C° 0 mm 6 mps 761 mmHg 42%
    11:00 +12°C° 0 mm 5 mps 761 mmHg 38%
    12:00 +12°C° 0 mm 5 mps 761 mmHg 37%
    13:00 +13°C° 0 mm 5 mps 762 mmHg 35%
    14:00 +13°C° 0 mm 5 mps 762 mmHg 34%
    15:00 +13°C° 0 mm 5 mps 762 mmHg 35%
    16:00 +13°C° 0 mm 5 mps 762 mmHg 36%
    17:00 +12°C° 0 mm 4 mps 762 mmHg 38%
    18:00 +10°C° 0 mm 4 mps 762 mmHg 41%
    19:00 +9°C° 0 mm 3 mps 763 mmHg 45%
    20:00 +7°C° 0 mm 2 mps 763 mmHg 48%
    21:00 +7°C° 0 mm 2 mps 763 mmHg 50%
    22:00 +6°C° 0 mm 2 mps 764 mmHg 53%
    23:00 +6°C° 0 mm 2 mps 764 mmHg 55%

    12 April, Sunday

    Time Temperature Precipitation Wind Pressure Humidity
    00:00 +5°C° 0 mm 2 mps 764 mmHg 56%
    01:00 +5°C° 0 mm 2 mps 764 mmHg 58%
    02:00 +4°C° 0 mm 2 mps 764 mmHg 59%
    03:00 +4°C° 0 mm 2 mps 764 mmHg 61%
    04:00 +4°C° 0 mm 1 mps 764 mmHg 64%
    05:00 +4°C° 0 mm 1 mps 765 mmHg 66%
    06:00 +6°C° 0 mm 1 mps 765 mmHg 61%
    07:00 +6°C° 0 mm 2 mps 765 mmHg 56%
    08:00 +8°C° 0 mm 2 mps 766 mmHg 51%
    09:00 +9°C° 0 mm 2 mps 766 mmHg 46%
    10:00 +10°C° 0 mm 3 mps 766 mmHg 41%
    11:00 +11°C° 0 mm 3 mps 766 mmHg 36%
    12:00 +11°C° 0 mm 3 mps 766 mmHg 35%
    13:00 +11°C° 0 mm 3 mps 765 mmHg 34%
    14:00 +11°C° 0 mm 3 mps 765 mmHg 33%
    15:00 +11°C° 0 mm 3 mps 765 mmHg 34%
    16:00 +10°C° 0 mm 3 mps 765 mmHg 36%
    17:00 +10°C° 0 mm 3 mps 765 mmHg 37%
    18:00 +8°C° 0 mm 3 mps 765 mmHg 40%
    19:00 +7°C° 0 mm 3 mps 765 mmHg 44%
    20:00 +4°C° 0 mm 3 mps 765 mmHg 47%
    21:00 +5°C° 0 mm 2 mps 765 mmHg 47%
    22:00 +4°C° 0 mm 2 mps 764 mmHg 47%
    23:00 +5°C° 0 mm 1 mps 764 mmHg 46%

    13 April, Monday

    Time Temperature Precipitation Wind Pressure Humidity
    00:00 +4°C° 0 mm 1 mps 764 mmHg 46%
    01:00 +4°C° 0 mm 1 mps 764 mmHg 46%
    02:00 +4°C° 0 mm 1 mps 764 mmHg 46%
    03:00 +3°C° 0 mm 1 mps 763 mmHg 47%
    04:00 +2°C° 0 mm 2 mps 763 mmHg 49%
    05:00 +2°C° 0 mm 2 mps 763 mmHg 50%
    06:00 +4°C° 0 mm 2 mps 763 mmHg 47%
    07:00 +5°C° 0 mm 3 mps 763 mmHg 44%
    08:00 +8°C° 0 mm 3 mps 763 mmHg 41%
    09:00 +10°C° 0 mm 4 mps 763 mmHg 38%
    10:00 +11°C° 0 mm 4 mps 763 mmHg 35%
    11:00 +13°C° 0 mm 4 mps 763 mmHg 32%
    12:00 +13°C° 0 mm 4 mps 762 mmHg 32%
    13:00 +14°C° 0 mm 4 mps 762 mmHg 32%
    14:00 +15°C° 0 mm 4 mps 762 mmHg 32%
    15:00 +14°C° 0 mm 4 mps 762 mmHg 35%
    16:00 +13°C° 0 mm 5 mps 761 mmHg 39%
    17:00 +12°C° 0 mm 5 mps 761 mmHg 43%
    18:00 +10°C° 0 mm 4 mps 761 mmHg 50%
    19:00 +8°C° 0 mm 3 mps 761 mmHg 58%
    20:00 +5°C° 0 mm 3 mps 760 mmHg 66%
    21:00 +5°C° 0 mm 2 mps 760 mmHg 68%
    22:00 +5°C° 0 mm 2 mps 760 mmHg 71%
    23:00 +4°C° 0 mm 2 mps 760 mmHg 74%
    Show more